Volver al catálogo

CZ-4B R/B

ActivoPO
NORAD 48158·ROCKET BODY·🇨🇳 China

Lanzado Apr 8, 2021 desde Taiyuan Satellite Launch Center

Loading…

Próximos Pases (próximas 24 horas)

TLE

ActualizadoSource: Space-Track

Época: Sep 14, 2026, 07:47 UTC

1 48158U 21028B   26257.32499871 -.00000106  00000-0 -31163-4 0  9991
2 48158  99.4945  26.2812 0159520 335.7435  23.6279 14.05444046278683

Sigue CZ-4B R/B en tiempo real con AllMySat

Download on the App Store